RH
16 12 11 12 17 21 21 21 24 27 30 31 29 25 21 18 18 19 18 19 19 20 21 22 23 25 25 26 28 29 30 32 32
21 21 21 21 20 21 24 27 32 32 29 23 20 21 20 21 22 23 24 26 26 26 26 26 26 25 25 26 26 27 27 28 29
21 20 20 21 23 27 32 33 31 24 23 23 23 24 24 24 24 25 26 26 27 27 26 25 26 26 27 27 28 28 29 30 31
21 22 26 28 31 34 33 26 25 26 27 28 29 32 30 32 30 31 31 31 30 31 30 30 30 31 32 32 32 33 33 33 33
28 29 29 31 32 28 26 27 28 31 33 37 39 43 42 42 42 45 45 45 43 42 40 38 36 35 36 36 36 37 37 38 37
27 28 30 28 26 27 27 31 38 41 42 44 43 47 41 40 40 41 42 43 43 44 45 46 46 47 48 48 48 48 46 44 43
23 24 27 26 28 30 31 34 37 39 41 42 40 40 42 43 44 44 44 43 43 43 42 42 43 44 46 50 53 55 57 57 57
22 24 25 28 27 30 34 38 38 40 44 46 47 48 49 49 50 48 46 45 44 42 42 41 43 45 47 49 51 55 58 59 60
23 24 24 26 28 28 32 37 42 46 48 48 48 46 47 50 47 44 41 37 35 36 37 39 43 45 46 47 51 55 58 60 61
25 28 32 37 43 46 49 50 50 50 51 51 50 47 41 38 35 30 29 28 27 26 28 30 32 36 39 44 46 51 55 60 63
43 44 46 48 49 50 50 50 50 51 52 53 53 50 41 28 27 29 32 31 32 31 33 37 39 40 39 40 41 44 49 51 54
47 48 49 49 49 49 50 50 50 50 51 53 53 53 42 29 31 33 38 39 38 39 40 39 38 36 37 41 44 47 48 50 50
47 48 49 48 48 48 48 48 48 49 50 52 53 53 47 31 34 42 43 47 47 48 52 52 49 42 30 26 40 52 54 56 57
46 47 47 47 47 47 47 48 48 49 50 52 52 52 52 34 34 43 50 54 57 59 63 66 63 56 35 27 26 33 44 54 61
45 46 46 46 46 46 46 47 47 48 49 51 52 51 54 37 38 45 51 59 71 73 75 76 75 67 36 31 35 32 44 54 76
43 43 44 44 44 45 45 46 46 48 50 50 52 51 56 40 42 48 56 71 78 79 77 77 80 77 45 33 36 40 59 62 71
48 44 44 45 46 46 46 47 48 51 52 51 50 52 56 42 44 53 64 77 82 85 84 83 87 81 54 32 37 38 58 73 62
66 63 62 60 58 56 55 56 56 55 54 54 51 57 58 47 47 55 73 82 84 86 91 91 93 84 48 29 34 35 53 63 79
63 68 78 79 76 72 73 68 61 60 58 55 60 68 64 51 50 62 74 77 82 84 91 94 95 84 40 32 39 38 44 54 76
89 79 86 84 94 91 89 86 76 74 69 66 68 72 70 70 75 75 84 76 83 97 93 100 90 51 33 36 39 45 36 58 62
Wind_Speed
15 16 16 16 16 14 13 13 14 13 12 12 11 11 10 11 12 12 11 10 10 11 11 11 12 12 12 12 12 12 12 12 12
16 16 16 16 15 15 15 14 13 11 10 11 12 13 12 13 13 12 12 12 12 11 12 11 12 12 13 13 12 12 12 13 13
16 16 16 17 16 16 15 13 12 11 11 12 13 14 14 13 13 13 12 12 12 12 12 12 12 13 13 13 13 14 14 14 14
16 17 17 16 16 15 14 12 12 12 12 13 15 14 14 14 13 13 13 12 12 12 12 13 13 13 14 14 14 14 14 14 13
15 15 15 15 14 13 13 12 12 13 13 13 13 13 12 12 12 12 12 12 12 13 13 13 13 13 14 14 14 14 14 14 14
14 14 14 13 14 14 12 12 12 11 10 10 11 11 9 10 10 10 11 11 11 12 12 12 12 13 13 13 13 14 14 14 14
13 13 14 13 14 13 11 10 9 8 8 8 9 10 8 9 9 9 10 10 11 12 12 12 12 12 12 12 13 13 13 14 14
14 13 13 13 12 12 10 8 7 7 6 7 7 8 7 8 8 9 9 10 10 11 12 12 12 12 12 12 12 13 13 14 15
15 15 13 13 11 10 10 9 8 7 6 7 8 7 7 7 8 9 10 10 11 12 12 12 12 12 12 12 13 13 14 15 15
16 15 16 14 13 11 9 7 4 3 3 6 8 9 9 8 9 9 10 10 12 13 13 13 12 12 12 13 14 14 14 15 16
18 16 15 13 11 9 6 4 3 4 6 7 8 11 10 10 9 9 10 10 12 13 14 14 14 14 15 16 16 16 16 16 17
20 17 15 13 11 9 8 7 7 9 10 10 10 11 11 10 9 9 10 11 12 13 14 15 16 17 18 19 19 19 19 19 19
20 19 17 15 13 12 11 12 12 12 12 12 12 11 12 10 10 10 10 11 13 14 16 17 19 20 22 20 20 21 22 22 22
21 20 19 18 17 17 16 16 16 15 15 15 14 13 13 12 11 12 12 12 14 16 18 20 22 24 27 26 22 21 22 22 21
25 24 23 23 22 21 20 19 20 19 18 17 16 15 15 14 14 14 15 15 16 20 20 22 24 27 29 27 24 23 19 17 16
29 28 28 27 26 25 25 24 23 22 21 20 19 18 17 16 15 16 16 17 18 19 24 25 26 28 30 29 27 26 21 17 20
32 32 31 30 29 29 28 27 26 24 23 22 21 20 19 18 18 18 18 19 21 22 25 27 28 29 31 29 28 26 23 18 15
32 35 36 34 31 31 30 29 27 26 25 23 23 22 21 21 21 21 21 21 22 25 28 29 31 33 34 31 31 29 25 22 18
39 34 34 39 37 36 32 33 29 29 26 24 21 22 23 24 26 24 25 23 26 27 31 31 34 35 36 33 32 31 26 24 22
35 39 36 52 47 44 40 41 29 30 27 24 28 25 23 24 27 27 25 27 30 31 30 33 36 37 35 33 34 31 28 23 22
Wind_Direction
132 128 129 127 125 126 122 119 115 109 105 96 87 84 76 74 73 71 68 65 65 65 63 59 54 49 44 38 34 31 28 23 22
132 131 131 127 127 127 122 119 113 107 100 94 91 81 74 71 71 71 69 68 68 66 62 58 50 43 38 36 32 28 25 22 21
134 132 130 130 129 128 125 118 113 107 99 91 86 79 77 73 72 70 69 65 62 58 52 46 43 38 34 30 28 26 26 22 20
134 134 133 132 132 131 124 119 114 106 99 92 85 79 75 73 71 67 63 58 53 49 43 38 36 33 30 27 24 23 22 20 17
138 139 136 136 136 130 122 118 112 105 98 90 84 78 76 70 64 59 53 47 42 38 33 30 28 25 23 21 18 17 15 14 11
148 142 140 140 135 127 122 118 113 107 97 90 83 77 59 60 53 47 42 36 30 25 21 17 15 12 11 10 7 7 6 3 0
151 146 146 143 133 128 124 119 111 100 94 85 76 73 53 49 40 35 30 24 19 13 9 4 2 360 357 355 354 354 351 348 347
150 150 148 141 134 129 123 115 103 87 70 60 54 49 43 29 22 16 13 10 5 358 355 351 350 348 345 343 342 342 339 336 335
154 152 147 140 133 122 114 106 91 73 49 29 26 10 28 10 3 1 360 359 357 356 353 349 345 342 339 336 336 336 333 329 327
153 149 144 140 133 128 120 114 96 74 19 13 4 352 353 0 355 355 359 1 2 359 355 348 343 340 338 335 333 332 328 325 323
159 160 158 156 158 161 169 182 243 287 311 323 332 342 335 346 351 353 356 358 359 358 357 352 347 343 339 335 331 328 323 321 318
176 177 178 181 187 202 218 237 261 282 295 301 310 316 322 327 340 344 347 348 346 347 348 349 345 340 336 330 326 321 319 318 316
192 193 196 205 217 227 240 255 266 275 283 288 289 291 307 307 315 327 335 334 333 335 336 336 336 336 335 330 323 317 313 312 311
211 214 217 225 232 241 250 259 266 271 273 276 278 277 290 294 297 309 318 323 326 327 328 328 332 332 333 329 323 320 314 311 311
226 233 236 238 244 249 255 259 264 267 270 271 268 268 276 282 289 300 309 316 319 320 320 323 324 328 331 327 323 323 318 316 314
237 242 246 249 253 254 256 258 262 264 265 265 260 261 268 274 281 291 301 306 315 317 318 321 321 323 326 324 322 322 316 310 309
248 249 250 251 253 256 258 260 261 262 265 262 258 257 265 268 274 284 289 297 304 307 310 315 316 318 320 317 315 317 307 303 300
261 259 259 256 252 256 257 258 258 257 257 255 256 256 259 262 266 274 281 290 297 304 308 311 313 314 317 316 313 312 303 302 295
254 255 261 257 250 252 259 260 255 251 247 244 250 255 261 264 267 273 278 286 295 300 305 306 308 310 311 311 312 307 303 297 292
252 260 260 262 260 246 257 251 255 251 243 236 249 252 258 267 274 276 274 282 290 293 297 301 302 307 306 308 306 304 301 294 294